Year,Month,Day,Hour,Minute,Value (Times are PST for temperature in C)
2018,07,15,00,00,18.50
2018,07,15,00,01,18.50
2018,07,15,00,02,18.40
2018,07,15,00,03,18.40
2018,07,15,00,04,18.40
2018,07,15,00,05,18.40
2018,07,15,00,06,18.30
2018,07,15,00,07,18.30
2018,07,15,00,08,18.30
2018,07,15,00,09,18.30
2018,07,15,00,10,18.20
2018,07,15,00,11,18.20
2018,07,15,00,12,18.20
2018,07,15,00,13,18.20
2018,07,15,00,14,18.10
2018,07,15,00,15,18.10
2018,07,15,00,16,18.10
2018,07,15,00,17,18.10
2018,07,15,00,18,18.00
2018,07,15,00,19,18.00
2018,07,15,00,20,17.90
2018,07,15,00,21,17.90
2018,07,15,00,22,17.90
2018,07,15,00,23,17.90
2018,07,15,00,24,17.80
2018,07,15,00,25,17.80
2018,07,15,00,26,17.80
2018,07,15,00,27,17.80
2018,07,15,00,28,17.80
2018,07,15,00,29,17.80
2018,07,15,00,30,17.80
2018,07,15,00,31,17.80
2018,07,15,00,32,17.80
2018,07,15,00,33,17.80
2018,07,15,00,34,17.80
2018,07,15,00,35,17.80
2018,07,15,00,36,17.80
2018,07,15,00,37,17.70
2018,07,15,00,38,17.70
2018,07,15,00,39,17.70
2018,07,15,00,40,17.70
2018,07,15,00,41,17.70
2018,07,15,00,42,17.70
2018,07,15,00,43,17.60
2018,07,15,00,44,17.60
2018,07,15,00,45,17.60
2018,07,15,00,46,17.60
2018,07,15,00,47,17.60
2018,07,15,00,48,17.50
2018,07,15,00,49,17.50
2018,07,15,00,50,17.50
2018,07,15,00,51,17.40
2018,07,15,00,52,17.40
2018,07,15,00,53,17.40
2018,07,15,00,54,17.40
2018,07,15,00,55,17.40
2018,07,15,00,56,17.40
2018,07,15,00,57,17.40
2018,07,15,00,58,17.40
2018,07,15,00,59,17.40
2018,07,15,01,00,17.40
2018,07,15,01,01,17.40
2018,07,15,01,02,17.30
2018,07,15,01,03,17.30
2018,07,15,01,04,17.30
2018,07,15,01,05,17.30
2018,07,15,01,06,17.20
2018,07,15,01,07,17.20
2018,07,15,01,08,17.20
2018,07,15,01,09,17.20
2018,07,15,01,10,17.10
2018,07,15,01,11,17.10
2018,07,15,01,12,17.10
2018,07,15,01,13,17.10
2018,07,15,01,14,17.10
2018,07,15,01,15,17.00
2018,07,15,01,16,17.00
2018,07,15,01,17,17.00
2018,07,15,01,18,17.00
2018,07,15,01,19,16.90
2018,07,15,01,20,16.90
2018,07,15,01,21,16.90
2018,07,15,01,22,16.90
2018,07,15,01,23,16.90
2018,07,15,01,24,16.90
2018,07,15,01,25,16.90
2018,07,15,01,26,16.90
2018,07,15,01,27,16.90
2018,07,15,01,28,16.90
2018,07,15,01,29,16.90
2018,07,15,01,30,16.90
2018,07,15,01,31,16.90
2018,07,15,01,32,16.90
2018,07,15,01,33,16.90
2018,07,15,01,34,16.90
2018,07,15,01,35,16.90
2018,07,15,01,36,16.80
2018,07,15,01,37,16.80
2018,07,15,01,38,16.80
2018,07,15,01,39,16.80
2018,07,15,01,40,16.80
2018,07,15,01,41,16.70
2018,07,15,01,42,16.70
2018,07,15,01,43,16.70
2018,07,15,01,44,16.70
2018,07,15,01,45,16.70
2018,07,15,01,46,16.60
2018,07,15,01,47,16.60
2018,07,15,01,48,16.60
2018,07,15,01,49,16.60
2018,07,15,01,50,16.60
2018,07,15,01,51,16.60
2018,07,15,01,52,16.60
2018,07,15,01,53,16.50
2018,07,15,01,54,16.50
2018,07,15,01,55,16.50
2018,07,15,01,56,16.50
2018,07,15,01,57,16.50
2018,07,15,01,58,16.50
2018,07,15,01,59,16.50
2018,07,15,02,00,16.50
2018,07,15,02,01,16.50
2018,07,15,02,02,16.50
2018,07,15,02,03,16.50
2018,07,15,02,04,16.50
2018,07,15,02,05,16.50
2018,07,15,02,06,16.40
2018,07,15,02,07,16.40
2018,07,15,02,08,16.40
2018,07,15,02,09,16.40
2018,07,15,02,10,16.40
2018,07,15,02,11,16.40
2018,07,15,02,12,16.40
2018,07,15,02,13,16.40
2018,07,15,02,14,16.40
2018,07,15,02,15,16.40
2018,07,15,02,16,16.30
2018,07,15,02,17,16.30
2018,07,15,02,18,16.30
2018,07,15,02,19,16.30
2018,07,15,02,20,16.30
2018,07,15,02,21,16.30
2018,07,15,02,22,16.20
2018,07,15,02,23,16.20
2018,07,15,02,24,16.20
2018,07,15,02,25,16.20
2018,07,15,02,26,16.10
2018,07,15,02,27,16.10
2018,07,15,02,28,16.10
2018,07,15,02,29,16.10
2018,07,15,02,30,16.10
2018,07,15,02,31,16.10
2018,07,15,02,32,16.00
2018,07,15,02,33,16.00
2018,07,15,02,34,16.00
2018,07,15,02,35,16.00
2018,07,15,02,36,15.90
2018,07,15,02,37,15.90
2018,07,15,02,38,15.90
2018,07,15,02,39,15.80
2018,07,15,02,40,15.80
2018,07,15,02,41,15.80
2018,07,15,02,42,15.80
2018,07,15,02,43,15.80
2018,07,15,02,44,15.80
2018,07,15,02,45,15.80
2018,07,15,02,46,15.70
2018,07,15,02,47,15.70
2018,07,15,02,48,15.70
2018,07,15,02,49,15.70
2018,07,15,02,50,15.70
2018,07,15,02,51,15.70
2018,07,15,02,52,15.70
2018,07,15,02,53,15.70
2018,07,15,02,54,15.70
2018,07,15,02,55,15.60
2018,07,15,02,56,15.60
2018,07,15,02,57,15.60
2018,07,15,02,58,15.60
2018,07,15,02,59,15.60
2018,07,15,03,00,15.60
2018,07,15,03,01,15.60
2018,07,15,03,02,15.60
2018,07,15,03,03,15.60
2018,07,15,03,04,15.60
2018,07,15,03,05,15.60
2018,07,15,03,06,15.60
2018,07,15,03,07,15.60
2018,07,15,03,08,15.60
2018,07,15,03,09,15.70
2018,07,15,03,10,15.70
2018,07,15,03,11,15.70
2018,07,15,03,12,15.70
2018,07,15,03,13,15.70
2018,07,15,03,14,15.70
2018,07,15,03,15,15.70
2018,07,15,03,16,15.70
2018,07,15,03,17,15.70
2018,07,15,03,18,15.70
2018,07,15,03,19,15.60
2018,07,15,03,20,15.60
2018,07,15,03,21,15.60
2018,07,15,03,22,15.60
2018,07,15,03,23,15.60
2018,07,15,03,24,15.60
2018,07,15,03,25,15.50
2018,07,15,03,26,15.50
2018,07,15,03,27,15.50
2018,07,15,03,28,15.40
2018,07,15,03,29,15.40
2018,07,15,03,30,15.40
2018,07,15,03,31,15.40
2018,07,15,03,32,15.30
2018,07,15,03,33,15.30
2018,07,15,03,34,15.30
2018,07,15,03,35,15.30
2018,07,15,03,36,15.30
2018,07,15,03,37,15.30
2018,07,15,03,38,15.30
2018,07,15,03,39,15.30
2018,07,15,03,40,15.30
2018,07,15,03,41,15.30
2018,07,15,03,42,15.30
2018,07,15,03,43,15.30
2018,07,15,03,44,15.30
2018,07,15,03,45,15.40
2018,07,15,03,46,15.40
2018,07,15,03,47,15.40
2018,07,15,03,48,15.40
2018,07,15,03,49,15.40
2018,07,15,03,50,15.40
2018,07,15,03,51,15.40
2018,07,15,03,52,15.40
2018,07,15,03,53,15.50
2018,07,15,03,54,15.40
2018,07,15,03,55,15.40
2018,07,15,03,56,15.40
2018,07,15,03,57,15.40
2018,07,15,03,58,15.40
2018,07,15,03,59,15.30
2018,07,15,04,00,15.30
2018,07,15,04,01,15.30
2018,07,15,04,02,15.20
2018,07,15,04,03,15.20
2018,07,15,04,04,15.20
2018,07,15,04,05,15.20
2018,07,15,04,06,15.10
2018,07,15,04,07,15.10
2018,07,15,04,08,15.10
2018,07,15,04,09,15.10
2018,07,15,04,10,15.00
2018,07,15,04,11,15.00
2018,07,15,04,12,15.00
2018,07,15,04,13,15.10
2018,07,15,04,14,15.10
2018,07,15,04,15,15.10
2018,07,15,04,16,15.10
2018,07,15,04,17,15.10
2018,07,15,04,18,15.00
2018,07,15,04,19,15.00
2018,07,15,04,20,15.00
2018,07,15,04,21,15.00
2018,07,15,04,22,15.00
2018,07,15,04,23,15.00
2018,07,15,04,24,14.90
2018,07,15,04,25,14.90
2018,07,15,04,26,14.90
2018,07,15,04,27,14.90
2018,07,15,04,28,14.90
2018,07,15,04,29,14.90
2018,07,15,04,30,14.80
2018,07,15,04,31,14.80
2018,07,15,04,32,14.80
2018,07,15,04,33,14.80
2018,07,15,04,34,14.80
2018,07,15,04,35,14.70
2018,07,15,04,36,14.70
2018,07,15,04,37,14.70
2018,07,15,04,38,14.70
2018,07,15,04,39,14.70
2018,07,15,04,40,14.60
2018,07,15,04,41,14.60
2018,07,15,04,42,14.60
2018,07,15,04,43,14.50
2018,07,15,04,44,14.50
2018,07,15,04,45,14.50
2018,07,15,04,46,14.40
2018,07,15,04,47,14.40
2018,07,15,04,48,14.40
2018,07,15,04,49,14.40
2018,07,15,04,50,14.40
2018,07,15,04,51,14.40
2018,07,15,04,52,14.40
2018,07,15,04,53,14.40
2018,07,15,04,54,14.40
2018,07,15,04,55,14.40
2018,07,15,04,56,14.40
2018,07,15,04,57,14.40
2018,07,15,04,58,14.40
2018,07,15,04,59,14.40
2018,07,15,05,00,14.40
2018,07,15,05,01,14.40
2018,07,15,05,02,14.40
2018,07,15,05,03,14.40
2018,07,15,05,04,14.40
2018,07,15,05,05,14.40
2018,07,15,05,06,14.40
2018,07,15,05,07,14.40
2018,07,15,05,08,14.40
2018,07,15,05,09,14.40
2018,07,15,05,10,14.30
2018,07,15,05,11,14.30
2018,07,15,05,12,14.30
2018,07,15,05,13,14.30
2018,07,15,05,14,14.30
2018,07,15,05,15,14.30
2018,07,15,05,16,14.30
2018,07,15,05,17,14.30
2018,07,15,05,18,14.30
2018,07,15,05,19,14.20
2018,07,15,05,20,14.20
2018,07,15,05,21,14.20
2018,07,15,05,22,14.20
2018,07,15,05,23,14.20
2018,07,15,05,24,14.10
2018,07,15,05,25,14.10
2018,07,15,05,26,14.10
2018,07,15,05,27,14.10
2018,07,15,05,28,14.00
2018,07,15,05,29,14.00
2018,07,15,05,30,14.00
2018,07,15,05,31,14.00
2018,07,15,05,32,14.00
2018,07,15,05,33,13.90
2018,07,15,05,34,13.90
2018,07,15,05,35,13.90
2018,07,15,05,36,13.90
2018,07,15,05,37,13.90
2018,07,15,05,38,13.90
2018,07,15,05,39,13.90
2018,07,15,05,40,13.90
2018,07,15,05,41,13.90
2018,07,15,05,42,13.90
2018,07,15,05,43,13.90
2018,07,15,05,44,13.90
2018,07,15,05,45,13.90
2018,07,15,05,46,13.90
2018,07,15,05,47,13.80
2018,07,15,05,48,13.80
2018,07,15,05,49,13.80
2018,07,15,05,50,13.80
2018,07,15,05,51,13.80
2018,07,15,05,52,13.80
2018,07,15,05,53,13.80
2018,07,15,05,54,13.80
2018,07,15,05,55,13.80
2018,07,15,05,56,13.70
2018,07,15,05,57,13.70
2018,07,15,05,58,13.70
2018,07,15,05,59,13.70
2018,07,15,06,00,13.70
2018,07,15,06,01,13.70
2018,07,15,06,02,13.70
2018,07,15,06,03,13.80
2018,07,15,06,04,13.80
2018,07,15,06,05,13.80
2018,07,15,06,06,13.80
2018,07,15,06,07,13.80
2018,07,15,06,08,13.80
2018,07,15,06,09,13.80
2018,07,15,06,10,13.80
2018,07,15,06,11,13.80
2018,07,15,06,12,13.80
2018,07,15,06,13,13.80
2018,07,15,06,14,13.80
2018,07,15,06,15,13.90
2018,07,15,06,16,13.90
2018,07,15,06,17,13.90
2018,07,15,06,18,13.90
2018,07,15,06,19,13.90
2018,07,15,06,20,13.90
2018,07,15,06,21,13.90
2018,07,15,06,22,13.90
2018,07,15,06,23,13.90
2018,07,15,06,24,13.90
2018,07,15,06,25,14.00
2018,07,15,06,26,14.00
2018,07,15,06,27,14.00
2018,07,15,06,28,14.10
2018,07,15,06,29,14.10
2018,07,15,06,30,14.10
2018,07,15,06,31,14.10
2018,07,15,06,32,14.10
2018,07,15,06,33,14.20
2018,07,15,06,34,14.20
2018,07,15,06,35,14.20
2018,07,15,06,36,14.20
2018,07,15,06,37,14.20
2018,07,15,06,38,14.30
2018,07,15,06,39,14.30
2018,07,15,06,40,14.30
2018,07,15,06,41,14.30
2018,07,15,06,42,14.30
2018,07,15,06,43,14.30
2018,07,15,06,44,14.40
2018,07,15,06,45,14.40
2018,07,15,06,46,14.40
2018,07,15,06,47,14.40
2018,07,15,06,48,14.40
2018,07,15,06,49,14.40
2018,07,15,06,50,14.40
2018,07,15,06,51,14.40
2018,07,15,06,52,14.40
2018,07,15,06,53,14.50
2018,07,15,06,54,14.50
2018,07,15,06,55,14.50
2018,07,15,06,56,14.50
2018,07,15,06,57,14.60
2018,07,15,06,58,14.60
2018,07,15,06,59,14.60
2018,07,15,07,00,14.70
2018,07,15,07,01,14.70
2018,07,15,07,02,14.80
2018,07,15,07,03,14.80
2018,07,15,07,04,14.90
2018,07,15,07,05,14.90
2018,07,15,07,06,15.00
2018,07,15,07,07,15.00
2018,07,15,07,08,15.10
2018,07,15,07,09,15.10
2018,07,15,07,10,15.20
2018,07,15,07,11,15.20
2018,07,15,07,12,15.30
2018,07,15,07,13,15.30
2018,07,15,07,14,15.30
2018,07,15,07,15,15.40
2018,07,15,07,16,15.40
2018,07,15,07,17,15.40
2018,07,15,07,18,15.50
2018,07,15,07,19,15.50
2018,07,15,07,20,15.50
2018,07,15,07,21,15.60
2018,07,15,07,22,15.60
2018,07,15,07,23,15.70
2018,07,15,07,24,15.70
2018,07,15,07,25,15.80
2018,07,15,07,26,16.00
2018,07,15,07,27,16.10
2018,07,15,07,28,16.20
2018,07,15,07,29,16.40
2018,07,15,07,30,16.50
2018,07,15,07,31,16.60
2018,07,15,07,32,16.80
2018,07,15,07,33,16.90
2018,07,15,07,34,17.00
2018,07,15,07,35,17.20
2018,07,15,07,36,17.30
2018,07,15,07,37,17.50
2018,07,15,07,38,17.70
2018,07,15,07,39,17.90
2018,07,15,07,40,18.10
2018,07,15,07,41,18.30
2018,07,15,07,42,18.50
2018,07,15,07,43,18.60
2018,07,15,07,44,18.80
2018,07,15,07,45,18.90
2018,07,15,07,46,19.00
2018,07,15,07,47,19.10
2018,07,15,07,48,19.20
2018,07,15,07,49,19.20
2018,07,15,07,50,19.20
2018,07,15,07,51,19.30
2018,07,15,07,52,19.30
2018,07,15,07,53,19.30
2018,07,15,07,54,19.30
2018,07,15,07,55,19.40
2018,07,15,07,56,19.50
2018,07,15,07,57,19.50
2018,07,15,07,58,19.60
2018,07,15,07,59,19.60
2018,07,15,08,00,19.70
2018,07,15,08,01,19.70
2018,07,15,08,02,19.80
2018,07,15,08,03,19.80
2018,07,15,08,04,19.80
2018,07,15,08,05,19.90
2018,07,15,08,06,19.90
2018,07,15,08,07,19.90
2018,07,15,08,08,20.00
2018,07,15,08,09,20.10
2018,07,15,08,10,20.20
2018,07,15,08,11,20.30
2018,07,15,08,12,20.40
2018,07,15,08,13,20.50
2018,07,15,08,14,20.60
2018,07,15,08,15,20.70
2018,07,15,08,16,20.80
2018,07,15,08,17,20.80
2018,07,15,08,18,20.90
2018,07,15,08,19,20.90
2018,07,15,08,20,21.00
2018,07,15,08,21,21.10
2018,07,15,08,22,21.10
2018,07,15,08,23,21.20
2018,07,15,08,24,21.30
2018,07,15,08,25,21.40
2018,07,15,08,26,21.40
2018,07,15,08,27,21.50
2018,07,15,08,28,21.60
2018,07,15,08,29,21.70
2018,07,15,08,30,21.80
2018,07,15,08,31,21.90
2018,07,15,08,32,22.00
2018,07,15,08,33,22.10
2018,07,15,08,34,22.20
2018,07,15,08,35,22.20
2018,07,15,08,36,22.30
2018,07,15,08,37,22.30
2018,07,15,08,38,22.40
2018,07,15,08,39,22.50
2018,07,15,08,40,22.50
2018,07,15,08,41,22.60
2018,07,15,08,42,22.50
2018,07,15,08,43,22.50
2018,07,15,08,44,22.50
2018,07,15,08,45,22.60
2018,07,15,08,46,22.70
2018,07,15,08,47,22.80
2018,07,15,08,48,22.80
2018,07,15,08,49,22.80
2018,07,15,08,50,22.90
2018,07,15,08,51,23.00
2018,07,15,08,52,23.00
2018,07,15,08,53,23.00
2018,07,15,08,54,23.10
2018,07,15,08,55,23.20
2018,07,15,08,56,23.20
2018,07,15,08,57,23.10
2018,07,15,08,58,23.10
2018,07,15,08,59,23.20
2018,07,15,09,00,23.20
2018,07,15,09,01,23.20
2018,07,15,09,02,23.20
2018,07,15,09,03,23.30
2018,07,15,09,04,23.40
2018,07,15,09,05,23.50
2018,07,15,09,06,23.60
2018,07,15,09,07,23.70
2018,07,15,09,08,23.70
2018,07,15,09,09,23.70
2018,07,15,09,10,23.80
2018,07,15,09,11,23.80
2018,07,15,09,12,23.80
2018,07,15,09,13,23.90
2018,07,15,09,14,23.90
2018,07,15,09,15,24.00
2018,07,15,09,16,24.10
2018,07,15,09,17,24.10
2018,07,15,09,18,24.20
2018,07,15,09,19,24.20
2018,07,15,09,20,24.30
2018,07,15,09,21,24.30
2018,07,15,09,22,24.40
2018,07,15,09,23,24.40
2018,07,15,09,24,24.30
2018,07,15,09,25,24.30
2018,07,15,09,26,24.20
2018,07,15,09,27,24.10
2018,07,15,09,28,24.20
2018,07,15,09,29,24.20
2018,07,15,09,30,24.30
2018,07,15,09,31,24.40
2018,07,15,09,32,24.50
2018,07,15,09,33,24.60
2018,07,15,09,34,24.70
2018,07,15,09,35,24.80
2018,07,15,09,36,24.90
2018,07,15,09,37,25.00
2018,07,15,09,38,25.00
2018,07,15,09,39,25.10
2018,07,15,09,40,25.10
2018,07,15,09,41,25.00
2018,07,15,09,42,24.80
2018,07,15,09,43,24.80
2018,07,15,09,44,24.80
2018,07,15,09,45,24.80
2018,07,15,09,46,24.80
2018,07,15,09,47,24.90
2018,07,15,09,48,24.90
2018,07,15,09,49,25.00
2018,07,15,09,50,25.10
2018,07,15,09,51,25.10
2018,07,15,09,52,25.00
2018,07,15,09,53,24.90
2018,07,15,09,54,24.90
2018,07,15,09,55,24.80
2018,07,15,09,56,24.80
2018,07,15,09,57,24.70
2018,07,15,09,58,24.60
2018,07,15,09,59,24.60
2018,07,15,10,00,24.60
2018,07,15,10,01,24.70
2018,07,15,10,02,24.80
2018,07,15,10,03,24.80
2018,07,15,10,04,24.80
2018,07,15,10,05,24.90
2018,07,15,10,06,24.90
2018,07,15,10,07,25.00
2018,07,15,10,08,25.10
2018,07,15,10,09,25.30
2018,07,15,10,10,25.50
2018,07,15,10,11,25.70
2018,07,15,10,12,25.80
2018,07,15,10,13,25.80
2018,07,15,10,14,25.90
2018,07,15,10,15,26.10
2018,07,15,10,16,26.20
2018,07,15,10,17,26.30
2018,07,15,10,18,26.30
2018,07,15,10,19,26.20
2018,07,15,10,20,26.00
2018,07,15,10,21,25.90
2018,07,15,10,22,25.90
2018,07,15,10,23,25.90
2018,07,15,10,24,26.00
2018,07,15,10,25,26.10
2018,07,15,10,26,26.00
2018,07,15,10,27,25.70
2018,07,15,10,28,25.60
2018,07,15,10,29,25.60
2018,07,15,10,30,25.60
2018,07,15,10,31,25.70
2018,07,15,10,32,25.90
2018,07,15,10,33,25.90
2018,07,15,10,34,25.90
2018,07,15,10,35,25.90
2018,07,15,10,36,25.90
2018,07,15,10,37,25.90
2018,07,15,10,38,26.00
2018,07,15,10,39,26.00
2018,07,15,10,40,26.10
2018,07,15,10,41,26.20
2018,07,15,10,42,26.30
2018,07,15,10,43,26.50
2018,07,15,10,44,26.60
2018,07,15,10,45,26.50
2018,07,15,10,46,26.50
2018,07,15,10,47,26.50
2018,07,15,10,48,26.50
2018,07,15,10,49,26.50
2018,07,15,10,50,26.50
2018,07,15,10,51,26.60
2018,07,15,10,52,26.70
2018,07,15,10,53,26.70
2018,07,15,10,54,26.80
2018,07,15,10,55,26.80
2018,07,15,10,56,26.90
2018,07,15,10,57,26.90
2018,07,15,10,58,27.00
2018,07,15,10,59,27.10
2018,07,15,11,00,27.10
2018,07,15,11,01,27.10
2018,07,15,11,02,27.20
2018,07,15,11,03,27.20
2018,07,15,11,04,27.20
2018,07,15,11,05,27.20
2018,07,15,11,06,27.00
2018,07,15,11,07,26.90
2018,07,15,11,08,26.70
2018,07,15,11,09,26.60
2018,07,15,11,10,26.50
2018,07,15,11,11,26.40
2018,07,15,11,12,26.30
2018,07,15,11,13,26.30
2018,07,15,11,14,26.40
2018,07,15,11,15,26.50
2018,07,15,11,16,26.70
2018,07,15,11,17,26.80
2018,07,15,11,18,26.80
2018,07,15,11,19,26.80
2018,07,15,11,20,26.80
2018,07,15,11,21,26.90
2018,07,15,11,22,26.90
2018,07,15,11,23,26.90
2018,07,15,11,24,27.00
2018,07,15,11,25,27.00
2018,07,15,11,26,27.10
2018,07,15,11,27,27.00
2018,07,15,11,28,27.00
2018,07,15,11,29,26.80
2018,07,15,11,30,26.70
2018,07,15,11,31,26.60
2018,07,15,11,32,26.60
2018,07,15,11,33,26.60
2018,07,15,11,34,26.60
2018,07,15,11,35,26.50
2018,07,15,11,36,26.50
2018,07,15,11,37,26.40
2018,07,15,11,38,26.40
2018,07,15,11,39,26.50
2018,07,15,11,40,26.60
2018,07,15,11,41,26.50
2018,07,15,11,42,26.50
2018,07,15,11,43,26.50
2018,07,15,11,44,26.70
2018,07,15,11,45,26.70
2018,07,15,11,46,26.70
2018,07,15,11,47,26.70
2018,07,15,11,48,26.70
2018,07,15,11,49,26.70
2018,07,15,11,50,26.70
2018,07,15,11,51,26.70
2018,07,15,11,52,26.60
2018,07,15,11,53,26.60
2018,07,15,11,54,26.50
2018,07,15,11,55,26.40
2018,07,15,11,56,26.40
2018,07,15,11,57,26.40
2018,07,15,11,58,26.40
2018,07,15,11,59,26.40
2018,07,15,12,00,26.40
2018,07,15,12,01,26.40
2018,07,15,12,02,26.40
2018,07,15,12,03,26.50
2018,07,15,12,04,26.50
2018,07,15,12,05,26.60
2018,07,15,12,06,26.50
2018,07,15,12,07,26.50
2018,07,15,12,08,26.50
2018,07,15,12,09,26.50
2018,07,15,12,10,26.40
2018,07,15,12,11,26.40
2018,07,15,12,12,26.40
2018,07,15,12,13,26.50
2018,07,15,12,14,26.60
2018,07,15,12,15,26.70
2018,07,15,12,16,26.80
2018,07,15,12,17,26.90
2018,07,15,12,18,26.90
2018,07,15,12,19,27.00
2018,07,15,12,20,27.00
2018,07,15,12,21,27.20
2018,07,15,12,22,27.30
2018,07,15,12,23,27.30
2018,07,15,12,24,27.30
2018,07,15,12,25,27.30
2018,07,15,12,26,27.30
2018,07,15,12,27,27.40
2018,07,15,12,28,27.50
2018,07,15,12,29,27.70
2018,07,15,12,30,27.70
2018,07,15,12,31,27.70
2018,07,15,12,32,27.80
2018,07,15,12,33,28.00
2018,07,15,12,34,28.10
2018,07,15,12,35,28.20
2018,07,15,12,36,28.30
2018,07,15,12,37,28.40
2018,07,15,12,38,28.50
2018,07,15,12,39,28.50
2018,07,15,12,40,28.60
2018,07,15,12,41,28.70
2018,07,15,12,42,28.70
2018,07,15,12,43,28.80
2018,07,15,12,44,28.70
2018,07,15,12,45,28.50
2018,07,15,12,46,28.30
2018,07,15,12,47,28.00
2018,07,15,12,48,27.70
2018,07,15,12,49,27.60
2018,07,15,12,50,27.50
2018,07,15,12,51,27.50
2018,07,15,12,52,27.40
2018,07,15,12,53,27.50
2018,07,15,12,54,27.50
2018,07,15,12,55,27.60
2018,07,15,12,56,27.70
2018,07,15,12,57,27.70
2018,07,15,12,58,27.80
2018,07,15,12,59,28.00
2018,07,15,13,00,28.20
2018,07,15,13,01,28.20
2018,07,15,13,02,28.20
2018,07,15,13,03,28.10
2018,07,15,13,04,27.90
2018,07,15,13,05,27.70
2018,07,15,13,06,27.60
2018,07,15,13,07,27.60
2018,07,15,13,08,27.60
2018,07,15,13,09,27.70
2018,07,15,13,10,27.70
2018,07,15,13,11,27.70
2018,07,15,13,12,27.80
2018,07,15,13,13,27.90
2018,07,15,13,14,28.10
2018,07,15,13,15,28.00
2018,07,15,13,16,27.80
2018,07,15,13,17,27.80
2018,07,15,13,18,27.80
2018,07,15,13,19,27.60
2018,07,15,13,20,27.50
2018,07,15,13,21,27.40
2018,07,15,13,22,27.50
2018,07,15,13,23,27.60
2018,07,15,13,24,27.60
2018,07,15,13,25,27.70
2018,07,15,13,26,27.80
2018,07,15,13,27,27.70
2018,07,15,13,28,27.80
2018,07,15,13,29,27.90
2018,07,15,13,30,28.00
2018,07,15,13,31,28.00
2018,07,15,13,32,28.00
2018,07,15,13,33,27.90
2018,07,15,13,34,27.90
2018,07,15,13,35,27.80
2018,07,15,13,36,27.70
2018,07,15,13,37,27.60
2018,07,15,13,38,27.60
2018,07,15,13,39,27.60
2018,07,15,13,40,27.60
2018,07,15,13,41,27.60
2018,07,15,13,42,27.60
2018,07,15,13,43,27.70
2018,07,15,13,44,27.70
2018,07,15,13,45,27.70
2018,07,15,13,46,27.80
2018,07,15,13,47,28.00
2018,07,15,13,48,28.10
2018,07,15,13,49,28.20
2018,07,15,13,50,28.30
2018,07,15,13,51,28.20
2018,07,15,13,52,28.10
2018,07,15,13,53,28.00
2018,07,15,13,54,27.90
2018,07,15,13,55,28.00
2018,07,15,13,56,28.10
2018,07,15,13,57,28.20
2018,07,15,13,58,28.30
2018,07,15,13,59,28.40
2018,07,15,14,00,28.40
2018,07,15,14,01,28.40
2018,07,15,14,02,28.40
2018,07,15,14,03,28.40
2018,07,15,14,04,28.50
2018,07,15,14,05,28.50
2018,07,15,14,06,28.50
2018,07,15,14,07,28.50
2018,07,15,14,08,28.40
2018,07,15,14,09,28.40
2018,07,15,14,10,28.50
2018,07,15,14,11,28.60
2018,07,15,14,12,28.60
2018,07,15,14,13,28.70
2018,07,15,14,14,28.80
2018,07,15,14,15,28.90
2018,07,15,14,16,28.90
2018,07,15,14,17,29.00
2018,07,15,14,18,29.10
2018,07,15,14,19,29.10
2018,07,15,14,20,29.10
2018,07,15,14,21,29.20
2018,07,15,14,22,29.30
2018,07,15,14,23,29.50
2018,07,15,14,24,29.50
2018,07,15,14,25,29.50
2018,07,15,14,26,29.50
2018,07,15,14,27,29.40
2018,07,15,14,28,29.30
2018,07,15,14,29,29.30
2018,07,15,14,30,29.30
2018,07,15,14,31,29.30
2018,07,15,14,32,29.30
2018,07,15,14,33,29.20
2018,07,15,14,34,29.20
2018,07,15,14,35,29.00
2018,07,15,14,36,28.90
2018,07,15,14,37,28.80
2018,07,15,14,38,28.80
2018,07,15,14,39,28.90
2018,07,15,14,40,29.00
2018,07,15,14,41,29.10
2018,07,15,14,42,29.10
2018,07,15,14,43,29.10
2018,07,15,14,44,29.10
2018,07,15,14,45,29.00
2018,07,15,14,46,29.00
2018,07,15,14,47,29.00
2018,07,15,14,48,28.90
2018,07,15,14,49,28.80
2018,07,15,14,50,28.90
2018,07,15,14,51,29.10
2018,07,15,14,52,29.20
2018,07,15,14,53,29.30
2018,07,15,14,54,29.30
2018,07,15,14,55,29.30
2018,07,15,14,56,29.20
2018,07,15,14,57,29.10
2018,07,15,14,58,29.10
2018,07,15,14,59,29.10
2018,07,15,15,00,29.20
2018,07,15,15,01,29.20
2018,07,15,15,02,29.20
2018,07,15,15,03,29.20
2018,07,15,15,04,29.20
2018,07,15,15,05,29.10
2018,07,15,15,06,29.10
2018,07,15,15,07,29.10
2018,07,15,15,08,29.10
2018,07,15,15,09,29.20
2018,07,15,15,10,29.30
2018,07,15,15,11,29.20
2018,07,15,15,12,29.20
2018,07,15,15,13,29.20
2018,07,15,15,14,29.20
2018,07,15,15,15,29.30
2018,07,15,15,16,29.40
2018,07,15,15,17,29.60
2018,07,15,15,18,29.80
2018,07,15,15,19,29.90
2018,07,15,15,20,29.90
2018,07,15,15,21,29.80
2018,07,15,15,22,29.70
2018,07,15,15,23,29.70
2018,07,15,15,24,29.70
2018,07,15,15,25,29.70
2018,07,15,15,26,29.70
2018,07,15,15,27,29.60
2018,07,15,15,28,29.60
2018,07,15,15,29,29.60
2018,07,15,15,30,29.40
2018,07,15,15,31,29.50
2018,07,15,15,32,29.50
2018,07,15,15,33,29.60
2018,07,15,15,34,29.60
2018,07,15,15,35,29.70
2018,07,15,15,36,29.80
2018,07,15,15,37,29.90
2018,07,15,15,38,30.00
2018,07,15,15,39,30.20
2018,07,15,15,40,30.40
2018,07,15,15,41,30.60
2018,07,15,15,42,30.60
2018,07,15,15,43,30.50
2018,07,15,15,44,30.40
2018,07,15,15,45,30.30
2018,07,15,15,46,30.20
2018,07,15,15,47,30.20
2018,07,15,15,48,30.30
2018,07,15,15,49,30.30
2018,07,15,15,50,30.30
2018,07,15,15,51,30.30
2018,07,15,15,52,30.20
2018,07,15,15,53,30.20
2018,07,15,15,54,30.10
2018,07,15,15,55,30.10
2018,07,15,15,56,30.00
2018,07,15,15,57,30.00
2018,07,15,15,58,29.90
2018,07,15,15,59,29.90
2018,07,15,16,00,29.90
2018,07,15,16,01,29.90
2018,07,15,16,02,30.00
2018,07,15,16,03,30.00
2018,07,15,16,04,30.10
2018,07,15,16,05,30.10
2018,07,15,16,06,30.00
2018,07,15,16,07,30.00
2018,07,15,16,08,30.00
2018,07,15,16,09,30.00
2018,07,15,16,10,30.00
2018,07,15,16,11,30.10
2018,07,15,16,12,30.10
2018,07,15,16,13,30.10
2018,07,15,16,14,30.10
2018,07,15,16,15,30.00
2018,07,15,16,16,30.00
2018,07,15,16,17,30.10
2018,07,15,16,18,30.20
2018,07,15,16,19,30.30
2018,07,15,16,20,30.30
2018,07,15,16,21,30.40
2018,07,15,16,22,30.50
2018,07,15,16,23,30.60
2018,07,15,16,24,30.60
2018,07,15,16,25,30.70
2018,07,15,16,26,30.80
2018,07,15,16,27,30.90
2018,07,15,16,28,30.90
2018,07,15,16,29,30.90
2018,07,15,16,30,31.00
2018,07,15,16,31,31.10
2018,07,15,16,32,31.10
2018,07,15,16,33,31.20
2018,07,15,16,34,31.30
2018,07,15,16,35,31.40
2018,07,15,16,36,31.50
2018,07,15,16,37,31.60
2018,07,15,16,38,31.80
2018,07,15,16,39,31.70
2018,07,15,16,40,31.50
2018,07,15,16,41,31.40
2018,07,15,16,42,31.20
2018,07,15,16,43,31.20
2018,07,15,16,44,31.20
2018,07,15,16,45,31.10
2018,07,15,16,46,31.00
2018,07,15,16,47,30.80
2018,07,15,16,48,30.60
2018,07,15,16,49,30.40
2018,07,15,16,50,30.40
2018,07,15,16,51,30.40
2018,07,15,16,52,30.40
2018,07,15,16,53,30.40
2018,07,15,16,54,30.40
2018,07,15,16,55,30.50
2018,07,15,16,56,30.50
2018,07,15,16,57,30.60
2018,07,15,16,58,30.60
2018,07,15,16,59,30.60
2018,07,15,17,00,30.40
2018,07,15,17,01,30.30
2018,07,15,17,02,30.30
2018,07,15,17,03,30.30
2018,07,15,17,04,30.20
2018,07,15,17,05,30.20
2018,07,15,17,06,30.20
2018,07,15,17,07,30.20
2018,07,15,17,08,30.20
2018,07,15,17,09,30.10
2018,07,15,17,10,30.20
2018,07,15,17,11,30.30
2018,07,15,17,12,30.30
2018,07,15,17,13,30.40
2018,07,15,17,14,30.40
2018,07,15,17,15,30.40
2018,07,15,17,16,30.40
2018,07,15,17,17,30.20
2018,07,15,17,18,30.10
2018,07,15,17,19,30.00